Location: Observatoire
(46.1952°N, 5.3391°E)
Time: 15:28:33
(UTC+01:00)

Courier 1B - Pass Details

Date: 21 February 2026
Orbit: 962 x 1208 km, 28.3° (Epoch: 5 March)

Event Time Altitude Azimuth Distance (km) Brightness Sun altitude
Rises 20:57:52 0° 239° (WSW) 3,877 11.2 -29.0°
Reaches altitude 10° 21:01:27 10° 222° (SW) 2,968 10.3 -29.6°
Enters shadow 21:05:38 19° 187° (S) 2,429 9.4 -30.3°
